Regional Weather Roundup
Issued by NWS

Home | Current Version | Previous Version | Graphics & Text | Print | Product List | Glossary On
Versions: 1 2 3 4 5 6 7 8 9 10 11 12 13 14 15 16 17 18 19 20 21 22 23 24 25 26 27 28 29 30 31 32 33 34 35 36 37 38 39 40 41 42 43 44 45 46 47 48 49 50
328
ASUS45 KPSR 191710
RWRAZ

ARIZONA HOURLY REGIONAL WEATHER ROUNDUP
NATIONAL WEATHER SERVICE PHOENIX AZ
1000 AM MST SUN FEB 19 2017

NOTE: FAIR INDICATES FEW OR NO CLOUDS BELOW 12,000 FEET WITH NO
SIGNIFICANT WEATHER AND/OR OBSTRUCTIONS TO VISIBILITY.

AZZ001>003-036-191800-
NORTHWEST ARIZONA

CITY           SKY/WX    TMP DP  RH WIND       PRES   REMARKS
BULLHEAD CITY  CLOUDY    55  50  82 S6        29.87R
KINGMAN        LGT RAIN  45  42  89 S3        29.87R FOG
$$

AZZ004>008-015-016-018-191800-
NORTH CENTRAL ARIZONA

CITY           SKY/WX    TMP DP  RH WIND       PRES   REMARKS
GRAND CANYON   LGT SNOW  32  32 100 SW9       29.87R VSB 1   WCI  24
WILLIAMS       MOSUNNY   34  32  93 S10G18    29.87R FOG     WCI  26
PRESCOTT       CLOUDY    40  37  89 SE5       29.89R
FLAGSTAFF      LGT SNOW  30  29  96 SW16      29.87R FOG     WCI  19
PAYSON         CLOUDY    37  36  93 S8G15     29.94R FOG     WCI  31
PAGE           LGT RAIN  42  35  76 VRB5      29.80R
$$

AZZ009>014-017-191800-
NORTHEAST ARIZONA

CITY           SKY/WX    TMP DP  RH WIND       PRES   REMARKS
WINSLOW        MOSUNNY   46  35  65 S8        29.87R
SAINT JOHNS    MOSUNNY   43  30  60 CALM      29.88R
WINDOW ROCK    LGT SNOW  38  32  79 SW16G22   29.89R WCI  29
SHOW LOW       SNOW      32  30  93 S15       29.91R VSB 1/2 WCI  22
$$

AZZ023-191800-
GREATER PHOENIX AREA

CITY           SKY/WX    TMP DP  RH WIND       PRES   REMARKS
PHOENIX        LGT RAIN  51  49  92 SE8       29.91R
BUCKEYE        PTSUNNY   54  54 100 SE8       29.93R
GLENDALE       CLOUDY    52  52 100 E5        29.94R
LUKE AFB       CLOUDY    52 N/A N/A SE7       29.91R
DEER VALLEY    CLOUDY    50  50 100 SE9       29.91R
SCOTTSDALE     LGT RAIN  50  48  93 SE7       29.90R
MESA-FALCON    LGT RAIN N/A N/A N/A E12       29.90R
MESA-GATEWAY   LGT RAIN  50  48  93 SE10      29.94R VSB 0
CHANDLER       CLOUDY    52  50  93 SE12      29.93S
$$

AZZ027-028-191800-
SOUTHWEST MARICOPA COUNTY AND PINAL COUNTY

CITY           SKY/WX    TMP DP  RH WIND       PRES   REMARKS
CASA GRANDE    NOT AVBL
GILA BEND      CLOUDY    54  52  91 SE5       29.92R
$$

AZZ503-504-507>509-191800-
SOUTHEAST ARIZONA

CITY           SKY/WX    TMP DP  RH WIND       PRES   REMARKS
TUCSON         LGT RAIN  51  43  74 SE5       29.97R
DAVIS-MONTHAN  DRIZZLE   52  39  62 NE7       29.96R
RYAN FIELD     PTSUNNY   52  45  76 SE8       29.97R
NOGALES        CLOUDY    48  41  76 S10       29.96R
SIERRA VISTA   PTSUNNY   44  35  70 VRB3      29.96S
DOUGLAS        CLOUDY    46  37  71 S9        29.98R
SAFFORD        MOSUNNY   51  37  58 VRB5      29.93R
$$

AZZ020-021-025-026-031-191800-
SOUTHWEST ARIZONA

CITY           SKY/WX    TMP DP  RH WIND       PRES   REMARKS
YUMA           SUNNY     60  53  77 S6        29.90R
$$

CAZ031-033-041-043-047-048-061-191800-
SOUTHERN CALIFORNIA

CITY           SKY/WX    TMP DP  RH WIND       PRES   REMARKS
DOWNTOWN L.A.  LGT RAIN  55  52  89 CALM      29.92R FOG
L.A. AIRPORT   LGT RAIN  54  52  93 SE5       29.92R
SAN DIEGO      CLOUDY    56  51  84 VRB3      29.97R
BURBANK        CLOUDY    53  49  86 SE8       29.90R
ONTARIO        PTSUNNY   53  49  86 W6        29.91R
RIVERSIDE      CLOUDY    53  50  89 CALM      29.92R
PALM SPRINGS   CLOUDY    56  55  97 S6        29.90R
EL CENTRO NAS  FOG       51  50  96 SE3       29.90R VSB<1/4
IMPERIAL       FOG       51  51 100 CALM      29.88R VSB<1/4
BLYTHE         SUNNY     57  55  93 S13       29.88R
NEEDLES        PTSUNNY   57  52  83 SE8       29.86R
$$

NVZ020-UTZ003-191800-
SOUTHERN NEVADA-UTAH

CITY           SKY/WX    TMP DP  RH WIND       PRES   REMARKS
LAS VEGAS      MOSUNNY   55  42  61 S13       29.78R
SALT LAKE CITY LGT RAIN  46  41  82 SE8       29.67R
$$

NMZ009-TXZ055-191800-
NEW MEXICO-WEST TEXAS

CITY           SKY/WX    TMP DP  RH WIND       PRES   REMARKS
ALBUQUERQUE    PTSUNNY   43  39  86 S12       29.89S
EL PASO        MOSUNNY   52  30  43 W13       29.93R
$$


........................KEY........................
SKY/WX - SKY CONDITION/WEATHER
TMP    - TEMPERATURE IN FAHRENHEIT
DP     - DEW POINT IN FAHRENHEIT
RH     - RELATIVE HUMIDITY IN PERCENT
WIND   - DIRECTION AND SPEED IN MILES PER HOUR (MPH)
VRB    - VARIABLE WIND DIRECTION
PRES   - MEAN SEA LEVEL PRESSURE IN INCHES OF MERCURY
         F - FALLING PRESSURE   R - RISING PRESSURE
         S - STEADY PRESSURE
VSB    - VISIBILITY IN MILES
HX     - HEAT INDEX IN FAHRENHEIT
WCI    - WIND CHILL INDEX IN FAHRENHEIT
TC     - TEMPERATURE IN CELSIUS WHICH IS ALSO KNOWN AS
         TEMPERATURE IN CENTIGRADE
AFB    - AIR FORCE BASE
         LUKE AFB IS LUKE AIR FORCE BASE
         DAVIS-MONTHAN IS DAVIS-MONTHAN AIR FORCE BASE
NAS    - NAVAL AIR STATION
         EL CENTRO NAS IS EL CENTRO NAVAL AIR STATION
N/A    - NOT AVAILABLE





USA.gov is the U.S. government's official web portal to all federal, state and local government web resources and services.